Location: Augustenthal
(51.7167°N, 10.2833°E)
Time: 14:09:53
(UTC+00:00)

Cosmos 1048 Rocket - Pass Details

Date: 18 May 2021
Orbit: 743 x 791 km, 74.0° (Epoch: 19 June)

Event Time Altitude Azimuth Distance (km) Brightness Sun altitude
Rises 21:18:31 0° 335° (NNW) 3,279 9.3 -14.1°
Reaches altitude 10° 21:20:56 10° 337° (NNW) 2,341 7.9 -14.3°
Maximum altitude 21:26:16 79° 64° (ENE) 790 4.0 -14.7°
Enters shadow 21:29:35 23° 149° (SSE) 1,577 5.0 -14.9°
